Location: NJAA Observatory
(40.6819°N, 74.8979°W)
Time: 03:57:32
(UTC-05:00)

Cosmos 2237 Rocket - Visible Passes

Search period start: 25 February 2017 00:00
Search period end: 07 March 2017 00:00
Orbit: 834 x 851 km, 71.0° (Epoch: 24 February)

Date Brightness Start Highest point End Pass type
(mag) Time Alt. Az. Time Alt. Az. Time Alt. Az.
25 Feb 2.7 19:36:50 10° N 19:42:00 40° NE 19:42:00 40° NE visible
25 Feb 4.3 21:21:14 10° NW 21:23:52 23° WNW 21:23:52 23° WNW visible
26 Feb 2.7 19:22:02 10° N 19:27:20 38° ENE 19:28:14 36° E visible
26 Feb 3.9 21:06:20 10° NW 21:10:07 28° W 21:10:07 28° W visible
27 Feb 2.8 19:07:13 10° N 19:12:29 36° ENE 19:14:36 27° E visible
27 Feb 3.6 20:51:27 10° NW 20:56:26 32° WSW 20:56:29 32° WSW visible
28 Feb 2.9 18:52:26 10° N 18:57:38 35° ENE 19:01:07 18° ESE visible
28 Feb 3.6 20:36:33 10° NW 20:41:38 34° WSW 20:43:01 30° SW visible
01 Mar 2.9 18:37:38 10° N 18:42:47 33° ENE 18:47:50 10° ESE visible
01 Mar 3.6 20:21:40 10° NW 20:26:49 36° WSW 20:29:45 22° SSW visible
02 Mar 3.0 18:22:51 10° N 18:27:55 32° ENE 18:32:58 10° ESE visible
02 Mar 3.5 20:06:47 10° NW 20:12:00 37° WSW 20:16:46 12° S visible
03 Mar 3.5 19:51:55 10° NW 19:57:11 39° WSW 20:02:25 10° S visible
04 Mar 3.4 19:37:02 10° NW 19:42:21 41° WSW 19:47:39 10° S visible
05 Mar 3.4 19:22:10 10° NW 19:27:32 44° WSW 19:32:52 10° S visible
06 Mar 3.3 19:07:19 10° NW 19:12:43 46° WSW 19:18:06 10° S visible
